When you browse on this site, cookies collect data to enhance your experience and personalize the content and advertising you see.
Visit our Privacy Policy to learn more. By continuing to use the site, you agree to this use of cookies and data.
  • en Belgique
  • Liste des pays
  • À 7 jours
  • Température de l'eau
  • Carte météo
  • Widgets météo
  • user-avatar
    Se connecter

    Météo par heure à Annaba

    Ce jour, 14 Octobre, Lundi

    Heure Température Précipitation Vent Pression Humidité
    00:00 +25°C° 0 mm 1 m/s 761 mmHg 55%
    01:00 +25°C° 0 mm 1 m/s 761 mmHg 54%
    02:00 +25°C° 0 mm 1 m/s 761 mmHg 54%
    03:00 +25°C° 0 mm 1 m/s 761 mmHg 54%
    04:00 +25°C° 0 mm 2 m/s 760 mmHg 54%
    05:00 +24°C° 0 mm 2 m/s 760 mmHg 54%
    06:00 +24°C° 0 mm 1 m/s 760 mmHg 55%
    07:00 +24°C° 0 mm 1 m/s 760 mmHg 55%
    08:00 +26°C° 0 mm 2 m/s 760 mmHg 50%
    09:00 +28°C° 0 mm 2 m/s 760 mmHg 45%
    10:00 +30°C° 0 mm 2 m/s 760 mmHg 40%
    11:00 +31°C° 0 mm 2 m/s 760 mmHg 37%
    12:00 +32°C° 0 mm 2 m/s 760 mmHg 34%
    13:00 +34°C° 0 mm 2 m/s 759 mmHg 31%
    14:00 +34°C° 0 mm 3 m/s 759 mmHg 33%
    15:00 +33°C° 0 mm 3 m/s 758 mmHg 35%
    16:00 +33°C° 0 mm 4 m/s 758 mmHg 37%
    17:00 +30°C° 0 mm 3 m/s 758 mmHg 42%
    18:00 +28°C° 0 mm 3 m/s 758 mmHg 48%
    19:00 +26°C° 0 mm 3 m/s 758 mmHg 53%
    20:00 +26°C° 0 mm 2 m/s 758 mmHg 52%
    21:00 +26°C° 0 mm 2 m/s 759 mmHg 51%
    22:00 +26°C° 0 mm 2 m/s 759 mmHg 50%
    23:00 +26°C° 0 mm 2 m/s 759 mmHg 49%

    Demain, 15 Octobre, Mardi

    Heure Température Précipitation Vent Pression Humidité
    00:00 +26°C° 0 mm 3 m/s 759 mmHg 48%
    01:00 +26°C° 0 mm 3 m/s 759 mmHg 48%
    02:00 +25°C° 0 mm 4 m/s 759 mmHg 53%
    03:00 +25°C° 0 mm 4 m/s 759 mmHg 58%
    04:00 +25°C° 0 mm 5 m/s 759 mmHg 64%
    05:00 +25°C° 0 mm 4 m/s 759 mmHg 66%
    06:00 +25°C° 0 mm 4 m/s 760 mmHg 68%
    07:00 +24°C° 0 mm 3 m/s 760 mmHg 70%
    08:00 +25°C° 0.1 mm 3 m/s 760 mmHg 65%
    09:00 +27°C° 0.1 mm 4 m/s 761 mmHg 60%
    10:00 +28°C° 0.1 mm 4 m/s 761 mmHg 55%
    11:00 +28°C° 0.1 mm 5 m/s 761 mmHg 56%
    12:00 +28°C° 0.1 mm 5 m/s 761 mmHg 57%
    13:00 +28°C° 0.1 mm 6 m/s 761 mmHg 59%
    14:00 +27°C° 0 mm 5 m/s 761 mmHg 60%
    15:00 +26°C° 0 mm 5 m/s 761 mmHg 62%
    16:00 +26°C° 0 mm 5 m/s 761 mmHg 63%
    17:00 +25°C° 0.5 mm 4 m/s 761 mmHg 66%
    18:00 +24°C° 0.5 mm 3 m/s 761 mmHg 70%
    19:00 +22°C° 0.5 mm 3 m/s 762 mmHg 73%
    20:00 +23°C° 0.3 mm 2 m/s 762 mmHg 74%
    21:00 +23°C° 0.3 mm 2 m/s 763 mmHg 75%
    22:00 +23°C° 0.3 mm 1 m/s 763 mmHg 76%
    23:00 +23°C° 0 mm 1 m/s 763 mmHg 77%

    Après-demain, 16 Octobre, Mercredi

    Heure Température Précipitation Vent Pression Humidité
    00:00 +22°C° 0 mm 1 m/s 763 mmHg 78%
    01:00 +21°C° 0 mm 2 m/s 763 mmHg 79%
    02:00 +22°C° 0 mm 1 m/s 763 mmHg 79%
    03:00 +22°C° 0 mm 1 m/s 763 mmHg 79%
    04:00 +21°C° 0 mm 1 m/s 763 mmHg 79%
    05:00 +21°C° 0 mm 1 m/s 763 mmHg 79%
    06:00 +21°C° 0 mm 1 m/s 762 mmHg 79%
    07:00 +21°C° 0 mm 1 m/s 762 mmHg 80%
    08:00 +22°C° 0 mm 1 m/s 763 mmHg 74%
    09:00 +24°C° 0 mm 1 m/s 763 mmHg 69%
    10:00 +25°C° 0 mm 1 m/s 763 mmHg 64%
    11:00 +25°C° 0 mm 2 m/s 763 mmHg 62%
    12:00 +26°C° 0 mm 2 m/s 762 mmHg 61%
    13:00 +26°C° 0 mm 3 m/s 762 mmHg 59%
    14:00 +26°C° 0 mm 3 m/s 762 mmHg 61%
    15:00 +26°C° 0 mm 4 m/s 762 mmHg 63%
    16:00 +25°C° 0 mm 4 m/s 761 mmHg 66%
    17:00 +23°C° 0 mm 4 m/s 761 mmHg 71%
    18:00 +22°C° 0 mm 3 m/s 761 mmHg 76%
    19:00 +21°C° 0 mm 3 m/s 762 mmHg 81%
    20:00 +21°C° 0 mm 3 m/s 762 mmHg 82%
    21:00 +21°C° 0 mm 3 m/s 762 mmHg 83%
    22:00 +21°C° 0 mm 2 m/s 763 mmHg 83%
    23:00 +21°C° 0 mm 2 m/s 762 mmHg 84%

    17 Octobre, Jeudi

    Heure Température Précipitation Vent Pression Humidité
    00:00 +20°C° 0 mm 2 m/s 762 mmHg 84%
    01:00 +21°C° 0 mm 1 m/s 762 mmHg 84%
    02:00 +21°C° 0 mm 1 m/s 762 mmHg 84%
    03:00 +21°C° 0 mm 1 m/s 762 mmHg 84%
    04:00 +21°C° 0 mm 1 m/s 761 mmHg 84%
    05:00 +21°C° 0 mm 1 m/s 761 mmHg 83%
    06:00 +21°C° 0 mm 1 m/s 761 mmHg 82%
    07:00 +21°C° 0 mm 1 m/s 761 mmHg 81%
    08:00 +23°C° 0 mm 1 m/s 761 mmHg 75%
    09:00 +24°C° 0 mm 2 m/s 762 mmHg 69%
    10:00 +26°C° 0 mm 2 m/s 762 mmHg 62%
    11:00 +27°C° 0 mm 2 m/s 761 mmHg 59%
    12:00 +28°C° 0 mm 3 m/s 761 mmHg 56%
    13:00 +29°C° 0 mm 3 m/s 761 mmHg 53%
    14:00 +28°C° 0 mm 3 m/s 761 mmHg 58%
    15:00 +27°C° 0 mm 4 m/s 760 mmHg 63%
    16:00 +26°C° 0 mm 4 m/s 760 mmHg 68%
    17:00 +25°C° 0.1 mm 4 m/s 760 mmHg 73%
    18:00 +24°C° 0.1 mm 3 m/s 760 mmHg 79%
    19:00 +22°C° 0.1 mm 3 m/s 760 mmHg 85%
    20:00 +22°C° 0 mm 3 m/s 761 mmHg 85%
    21:00 +23°C° 0 mm 2 m/s 761 mmHg 86%
    22:00 +23°C° 0 mm 2 m/s 761 mmHg 87%
    23:00 +23°C° 0 mm 1 m/s 761 mmHg 87%

    18 Octobre, Vendredi

    Heure Température Précipitation Vent Pression Humidité
    00:00 +23°C° 0 mm 1 m/s 761 mmHg 87%
    01:00 +22°C° 0 mm 1 m/s 761 mmHg 87%
    02:00 +22°C° 0 mm 1 m/s 761 mmHg 87%
    03:00 +22°C° 0 mm 1 m/s 760 mmHg 87%
    04:00 +22°C° 0 mm 1 m/s 760 mmHg 87%
    05:00 +22°C° 0 mm 1 m/s 760 mmHg 87%
    06:00 +22°C° 0 mm 1 m/s 760 mmHg 88%
    07:00 +22°C° 0 mm 1 m/s 760 mmHg 88%
    08:00 +23°C° 0 mm 1 m/s 761 mmHg 82%
    09:00 +25°C° 0 mm 1 m/s 761 mmHg 76%
    10:00 +26°C° 0 mm 1 m/s 761 mmHg 69%
    11:00 +27°C° 0 mm 1 m/s 761 mmHg 66%
    12:00 +28°C° 0 mm 2 m/s 761 mmHg 63%
    13:00 +28°C° 0 mm 2 m/s 760 mmHg 60%
    14:00 +28°C° 0.1 mm 3 m/s 760 mmHg 64%
    15:00 +27°C° 0.1 mm 3 m/s 760 mmHg 67%
    16:00 +27°C° 0.1 mm 3 m/s 760 mmHg 70%
    17:00 +26°C° 0.1 mm 3 m/s 760 mmHg 77%
    18:00 +24°C° 0.1 mm 3 m/s 760 mmHg 83%
    19:00 +22°C° 0.1 mm 3 m/s 760 mmHg 89%
    20:00 +23°C° 0 mm 2 m/s 761 mmHg 89%
    21:00 +23°C° 0 mm 2 m/s 761 mmHg 89%
    22:00 +23°C° 0 mm 2 m/s 761 mmHg 89%
    23:00 +23°C° 0 mm 1 m/s 761 mmHg 89%

    19 Octobre, Samedi

    Heure Température Précipitation Vent Pression Humidité
    00:00 +23°C° 0 mm 1 m/s 761 mmHg 89%
    01:00 +22°C° 0 mm 1 m/s 761 mmHg 89%
    02:00 +22°C° 0 mm 1 m/s 760 mmHg 89%
    03:00 +22°C° 0 mm 1 m/s 760 mmHg 89%
    04:00 +22°C° 0 mm 1 m/s 760 mmHg 88%
    05:00 +22°C° 0 mm 1 m/s 760 mmHg 87%
    06:00 +22°C° 0 mm 1 m/s 760 mmHg 86%
    07:00 +22°C° 0 mm 1 m/s 760 mmHg 86%
    08:00 +23°C° 0 mm 1 m/s 760 mmHg 77%
    09:00 +25°C° 0 mm 1 m/s 760 mmHg 68%
    10:00 +27°C° 0 mm 1 m/s 760 mmHg 59%
    11:00 +28°C° 0 mm 1 m/s 760 mmHg 55%
    12:00 +30°C° 0 mm 1 m/s 759 mmHg 50%
    13:00 +31°C° 0 mm 2 m/s 759 mmHg 46%
    14:00 +30°C° 0 mm 2 m/s 759 mmHg 50%
    15:00 +29°C° 0 mm 2 m/s 758 mmHg 54%
    16:00 +28°C° 0 mm 3 m/s 758 mmHg 58%
    17:00 +27°C° 0 mm 3 m/s 758 mmHg 65%
    18:00 +26°C° 0 mm 2 m/s 758 mmHg 72%
    19:00 +24°C° 0 mm 2 m/s 758 mmHg 79%
    20:00 +24°C° 0 mm 2 m/s 759 mmHg 78%
    21:00 +24°C° 0 mm 2 m/s 759 mmHg 76%
    22:00 +24°C° 0 mm 2 m/s 759 mmHg 75%
    23:00 +24°C° 0 mm 2 m/s 759 mmHg 72%
    Voir plus